| time (UTC) | temp F | wind direction | speed MPH | gust MPH | rain 1hr in | rain 24hr in | rain mn in | humidity % | barometer mb |
| 20260510192239 | 66 | 193 | 6.0 | 14.0 | 0.00 | 0.00 | 0.00 | 45 | 725.9 |
| 20260510191738 | 66 | 207 | 9.0 | 14.0 | 0.00 | 0.00 | 0.00 | 42 | 790.6 |
| 20260510190721 | 66 | 248 | 8.0 | 15.0 | 0.00 | 0.00 | 0.00 | 42 | 811.4 |
| 20260510190220 | 66 | 217 | 6.0 | 15.0 | 0.00 | 0.00 | 0.00 | 42 | 805.9 |
| 20260510185719 | 66 | 231 | 8.0 | 15.0 | 0.00 | 0.00 | 0.00 | 43 | 850.1 |
| 20260510185219 | 66 | 254 | 10.0 | 18.0 | 0.00 | 0.00 | 0.00 | 41 | 864.2 |
| 20260510183646 | 66 | 246 | 7.0 | 15.0 | 0.00 | 0.00 | 0.00 | 43 | 839.4 |
| 20260510182628 | 66 | 234 | 11.0 | 15.0 | 0.00 | 0.00 | 0.00 | 41 | 781.4 |
| 20260510181611 | 66 | 195 | 8.0 | 15.0 | 0.00 | 0.00 | 0.00 | 45 | 718.3 |
| 20260510181110 | 66 | 195 | 8.0 | 16.0 | 0.00 | 0.00 | 0.00 | 41 | 710.1 |
| 20260510180609 | 66 | 199 | 10.0 | 19.0 | 0.00 | 0.00 | 0.00 | 40 | 691.3 |
| 20260510173447 | 66 | 215 | 9.0 | 18.0 | 0.00 | 0.00 | 0.00 | 42 | 770.9 |
| 20260510172946 | 65 | 225 | 11.0 | 18.0 | 0.00 | 0.00 | 0.00 | 40 | 766.4 |
| 20260510172446 | 66 | 223 | 10.0 | 19.0 | 0.00 | 0.00 | 0.00 | 39 | 737.0 |
| 20260510171946 | 66 | 187 | 12.0 | 19.0 | 0.00 | 0.00 | 0.00 | 40 | 702.6 |
| 20260510171445 | 66 | 176 | 10.0 | 14.0 | 0.00 | 0.00 | 0.00 | 39 | 658.1 |
| 20260510170430 | 65 | 186 | 8.0 | 14.0 | 0.00 | 0.00 | 0.00 | 42 | 640.3 |
| 20260510165933 | 64 | 172 | 9.0 | 15.0 | 0.00 | 0.00 | 0.00 | 43 | 600.8 |
| 20260510164910 | 64 | 141 | 7.0 | 16.0 | 0.00 | 0.00 | 0.00 | 43 | 600.1 |
| 20260510163338 | 65 | 132 | 9.0 | 16.0 | 0.00 | 0.00 | 0.00 | 41 | 574.0 |
| 20260510162321 | 65 | 57 | 8.0 | 20.0 | 0.00 | 0.00 | 0.00 | 39 | 608.5 |
| 20260510161820 | 64 | 205 | 11.0 | 20.0 | 0.00 | 0.00 | 0.00 | 39 | 745.9 |
| 20260510161319 | 65 | 196 | 8.0 | 18.0 | 0.00 | 0.00 | 0.00 | 41 | 751.2 |
| 20260510160302 | 64 | 181 | 11.0 | 19.0 | 0.00 | 0.00 | 0.00 | 40 | 705.9 |
| 20260510155802 | 65 | 169 | 9.0 | 16.0 | 0.00 | 0.00 | 0.00 | 40 | 723.3 |
| 20260510153712 | 63 | 180 | 10.0 | 15.0 | 0.00 | 0.00 | 0.00 | 44 | 662.0 |
| 20260510153211 | 63 | 166 | 9.0 | 15.0 | 0.00 | 0.00 | 0.00 | 45 | 659.0 |
| 20260510152711 | 62 | 145 | 7.0 | 13.0 | 0.00 | 0.00 | 0.00 | 47 | 635.9 |
| 20260510151653 | 61 | 175 | 9.0 | 13.0 | 0.00 | 0.00 | 0.00 | 46 | 695.5 |
| 20260510151153 | 61 | 184 | 8.0 | 13.0 | 0.00 | 0.00 | 0.00 | 46 | 697.3 |
| 20260510150651 | 61 | 183 | 8.0 | 13.0 | 0.00 | 0.00 | 0.00 | 46 | 695.0 |
| 20260510150150 | 61 | 202 | 7.0 | 13.0 | 0.00 | 0.00 | 0.00 | 47 | 677.2 |
| 20260510145650 | 61 | 168 | 7.0 | 13.0 | 0.00 | 0.00 | 0.00 | 49 | 652.9 |
| 20260510145149 | 60 | 165 | 8.0 | 13.0 | 0.00 | 0.00 | 0.00 | 47 | 654.9 |
| 20260510144648 | 60 | 163 | 5.0 | 13.0 | 0.00 | 0.00 | 0.00 | 49 | 680.3 |
| 20260510143633 | 60 | 178 | 5.0 | 14.0 | 0.00 | 0.00 | 0.00 | 47 | 692.3 |
| 20260510142102 | 60 | 169 | 7.0 | 14.0 | 0.00 | 0.00 | 0.00 | 48 | 656.3 |
| 20260510141044 | 60 | 148 | 6.0 | 14.0 | 0.00 | 0.00 | 0.00 | 51 | 638.7 |
| 20260510140544 | 60 | 146 | 6.0 | 14.0 | 0.00 | 0.00 | 0.00 | 51 | 660.3 |
| 20260510135528 | 60 | 149 | 8.0 | 14.0 | 0.00 | 0.00 | 0.00 | 48 | 664.5 |
| 20260510135027 | 60 | 191 | 7.0 | 14.0 | 0.00 | 0.00 | 0.00 | 50 | 726.1 |
| 20260510133455 | 60 | 179 | 7.0 | 16.0 | 0.00 | 0.00 | 0.00 | 49 | 695.9 |
| 20260510132438 | 60 | 178 | 8.0 | 16.0 | 0.00 | 0.00 | 0.00 | 50 | 661.8 |
| 20260510131938 | 60 | 162 | 8.0 | 16.0 | 0.00 | 0.00 | 0.00 | 50 | 663.4 |
| 20260510130922 | 60 | 162 | 8.0 | 16.0 | 0.00 | 0.00 | 0.00 | 51 | 663.1 |
| 20260510125905 | 60 | 172 | 9.0 | 15.0 | 0.00 | 0.00 | 0.00 | 52 | 668.4 |
| 20260510125405 | 59 | 165 | 8.0 | 15.0 | 0.00 | 0.00 | 0.00 | 51 | 657.7 |
| 20260510124904 | 59 | 159 | 8.0 | 16.0 | 0.00 | 0.00 | 0.00 | 51 | 635.1 |
| 20260510124403 | 59 | 151 | 8.0 | 16.0 | 0.00 | 0.00 | 0.00 | 52 | 612.7 |
| 20260510123346 | 59 | 141 | 8.0 | 14.0 | 0.00 | 0.00 | 0.00 | 53 | 585.6 |
| 20260510122845 | 59 | 152 | 7.0 | 16.0 | 0.00 | 0.00 | 0.00 | 54 | 576.0 |
| 20260510121828 | 59 | 129 | 8.0 | 14.0 | 0.00 | 0.00 | 0.00 | 54 | 558.6 |
| 20260510121327 | 59 | 131 | 10.0 | 14.0 | 0.00 | 0.00 | 0.00 | 55 | 573.7 |
| 20260510120826 | 58 | 135 | 8.0 | 14.0 | 0.00 | 0.00 | 0.00 | 55 | 598.3 |
| 20260510120325 | 58 | 168 | 6.0 | 14.0 | 0.00 | 0.00 | 0.00 | 55 | 630.8 |
| 20260510115824 | 58 | 163 | 8.0 | 14.0 | 0.00 | 0.00 | 0.00 | 54 | 632.1 |
| 20260510114807 | 58 | 163 | 8.0 | 11.0 | 0.00 | 0.00 | 0.00 | 55 | 642.3 |
| 20260510114307 | 58 | 147 | 6.0 | 11.0 | 0.00 | 0.00 | 0.00 | 56 | 643.7 |
| 20260510112735 | 58 | 152 | 7.0 | 11.0 | 0.00 | 0.00 | 0.00 | 56 | 619.1 |
| 20260510112234 | 58 | 155 | 7.0 | 11.0 | 0.00 | 0.00 | 0.00 | 58 | 605.8 |
| 20260510111217 | 59 | 131 | 7.0 | 11.0 | 0.00 | 0.00 | 0.00 | 58 | 602.0 |
| 20260510110200 | 59 | 159 | 6.0 | 11.0 | 0.00 | 0.00 | 0.00 | 59 | 603.4 |
| 20260510105658 | 59 | 139 | 5.0 | 11.0 | 0.00 | 0.00 | 0.00 | 60 | 587.0 |
| 20260510105157 | 60 | 133 | 6.0 | 11.0 | 0.00 | 0.00 | 0.00 | 60 | 565.0 |
| 20260510103111 | 60 | 141 | 6.0 | 11.0 | 0.00 | 0.00 | 0.00 | 65 | 556.7 |
| 20260510102610 | 60 | 129 | 5.0 | 11.0 | 0.00 | 0.00 | 0.00 | 65 | 587.0 |
| 20260510102109 | 60 | 130 | 5.0 | 11.0 | 0.00 | 0.00 | 0.00 | 65 | 599.5 |
| 20260510101609 | 60 | 150 | 5.0 | 11.0 | 0.00 | 0.00 | 0.00 | 66 | 619.3 |
| 20260510101108 | 60 | 152 | 4.0 | 11.0 | 0.00 | 0.00 | 0.00 | 66 | 615.1 |
| 20260510100607 | 60 | 147 | 5.0 | 11.0 | 0.00 | 0.00 | 0.00 | 66 | 605.2 |
| 20260510095552 | 60 | 140 | 5.0 | 11.0 | 0.00 | 0.00 | 0.00 | 67 | 578.3 |
| 20260510095050 | 60 | 144 | 5.0 | 11.0 | 0.00 | 0.00 | 0.00 | 67 | 577.6 |
| 20260510094549 | 60 | 138 | 4.0 | 11.0 | 0.00 | 0.00 | 0.00 | 67 | 565.7 |
| 20260510094049 | 60 | 135 | 4.0 | 11.0 | 0.00 | 0.00 | 0.00 | 67 | 562.1 |
| 20260510093548 | 60 | 145 | 5.0 | 11.0 | 0.00 | 0.00 | 0.00 | 67 | 547.8 |
| 20260510092533 | 61 | 107 | 5.0 | 11.0 | 0.00 | 0.00 | 0.00 | 67 | 531.2 |
| 20260510091516 | 61 | 141 | 6.0 | 11.0 | 0.00 | 0.00 | 0.00 | 66 | 550.3 |
| 20260510083839 | 63 | 142 | 4.0 | 11.0 | 0.00 | 0.00 | 0.00 | 63 | 619.6 |
| 20260510083338 | 63 | 141 | 3.0 | 11.0 | 0.00 | 0.00 | 0.00 | 63 | 603.8 |
| 20260510082837 | 63 | 166 | 5.0 | 11.0 | 0.00 | 0.00 | 0.00 | 63 | 598.1 |
| 20260510081305 | 63 | 165 | 6.0 | 11.0 | 0.00 | 0.00 | 0.00 | 64 | 571.8 |
| 20260510073628 | 64 | 121 | 3.0 | 11.0 | 0.00 | 0.00 | 0.00 | 65 | 547.9 |
| 20260510073127 | 64 | 129 | 3.0 | 11.0 | 0.00 | 0.00 | 0.00 | 65 | 554.4 |
| 20260510072110 | 64 | 110 | 2.0 | 11.0 | 0.00 | 0.00 | 0.00 | 64 | 553.6 |
| 20260510071609 | 64 | 136 | 4.0 | 11.0 | 0.00 | 0.00 | 0.00 | 64 | 572.2 |
| 20260510070553 | 65 | 130 | 4.0 | 11.0 | 0.00 | 0.00 | 0.00 | 65 | 524.9 |
| 20260510065536 | 65 | 47 | 4.0 | 11.0 | 0.00 | 0.00 | 0.00 | 66 | 446.6 |
| 20260510064519 | 65 | 114 | 3.0 | 11.0 | 0.00 | 0.00 | 0.00 | 67 | 531.4 |
| 20260510061914 | 62 | 111 | 0.0 | 15.0 | 0.00 | 0.00 | 0.00 | 79 | 577.3 |
| 20260510055825 | 62 | 147 | 1.0 | 15.0 | 0.00 | 0.00 | 0.00 | 80 | 521.6 |
| 20260510054809 | 62 | 106 | 0.0 | 15.0 | 0.00 | 0.00 | 0.00 | 79 | 489.2 |
| 20260510053752 | 64 | 141 | 3.0 | 15.0 | 0.00 | 0.00 | 0.00 | 78 | 511.9 |
| 20260510053251 | 64 | 101 | 1.0 | 15.0 | 0.00 | 0.00 | 0.00 | 76 | 479.5 |
| 20260510052750 | 63 | 126 | 0.0 | 15.0 | 0.00 | 0.00 | 0.00 | 76 | 522.3 |
| 20260510052249 | 63 | 137 | 1.0 | 15.0 | 0.00 | 0.00 | 0.00 | 78 | 490.6 |
| 20260510051747 | 63 | 102 | 0.0 | 15.0 | 0.00 | 0.00 | 0.00 | 79 | 447.7 |
| 20260510050213 | 63 | 82 | 0.0 | 15.0 | 0.00 | 0.00 | 0.00 | 77 | 434.9 |
| 20260510045156 | 63 | 125 | 0.0 | 15.0 | 0.00 | 0.00 | 0.00 | 77 | 488.6 |
| 20260510042553 | 64 | 127 | 0.0 | 15.0 | 0.00 | 0.00 | 0.00 | 76 | 497.6 |
| 20260510041536 | 64 | 123 | 0.0 | 15.0 | 0.00 | 0.00 | 0.00 | 75 | 475.2 |
| 20260510040003 | 65 | 85 | 0.0 | 15.0 | 0.00 | 0.00 | 0.00 | 73 | 466.1 |
| 20260510035502 | 65 | 117 | 0.0 | 15.0 | 0.00 | 0.00 | 0.00 | 73 | 503.7 |
| 20260510033413 | 67 | 134 | 0.0 | 15.0 | 0.00 | 0.00 | 0.00 | 68 | 525.0 |
| 20260510032912 | 67 | 123 | 0.0 | 15.0 | 0.00 | 0.00 | 0.00 | 68 | 506.6 |
| 20260510032411 | 67 | 110 | 0.0 | 15.0 | 0.00 | 0.00 | 0.00 | 65 | 508.5 |
| 20260510031910 | 68 | 130 | 0.0 | 15.0 | 0.00 | 0.00 | 0.00 | 64 | 539.9 |
| 20260510030854 | 70 | 140 | 1.0 | 15.0 | 0.00 | 0.00 | 0.00 | 61 | 548.5 |
| 20260510024249 | 70 | 149 | 4.0 | 15.0 | 0.00 | 0.00 | 0.00 | 60 | 559.7 |
| 20260510022717 | 71 | 112 | 1.0 | 15.0 | 0.00 | 0.00 | 0.00 | 60 | 478.2 |
| 20260510021700 | 73 | 83 | 1.0 | 15.0 | 0.00 | 0.00 | 0.00 | 57 | 484.6 |
| 20260510020643 | 72 | 90 | 1.0 | 15.0 | 0.00 | 0.00 | 0.00 | 59 | 545.3 |
| 20260510015110 | 69 | 2 | 5.0 | 15.0 | 0.00 | 0.00 | 0.00 | 72 | 1222.1 |
| 20260510014610 | 70 | 0 | 0.0 | 15.0 | 0.00 | 0.00 | 0.00 | 69 | 1235.1 |
| 20260510014110 | 71 | 0 | 0.0 | 15.0 | 0.00 | 0.00 | 0.00 | 69 | 1234.8 |
| 20260510013053 | 72 | 0 | 0.0 | 15.0 | 0.00 | 0.00 | 0.00 | 68 | 1234.1 |
| 20260510010450 | 76 | 0 | 0.0 | 15.0 | 0.00 | 0.00 | 0.00 | 67 | 1229.9 |
| 20260510005949 | 77 | 0 | 0.0 | 15.0 | 0.00 | 0.00 | 0.00 | 65 | 1229.3 |
| 20260510004932 | 79 | 0 | 0.0 | 15.0 | 0.00 | 0.00 | 0.00 | 61 | 1233.0 |
| 20260510003915 | 80 | 0 | 0.0 | 15.0 | 0.00 | 0.00 | 0.00 | 62 | 1232.8 |
| 20260510003413 | 81 | 357 | 0.0 | 15.0 | 0.00 | 0.00 | 0.00 | 61 | 1233.3 |
| 20260510002357 | 81 | 0 | 0.0 | 15.0 | 0.00 | 0.00 | 0.00 | 56 | 1240.4 |
| 20260510001340 | 81 | 359 | 0.0 | 15.0 | 0.00 | 0.00 | 0.00 | 48 | 1233.0 |
| 20260510000840 | 81 | 358 | 0.0 | 15.0 | 0.00 | 0.00 | 0.00 | 49 | 1228.1 |
| 20260510000341 | 81 | 359 | 0.0 | 15.0 | 0.00 | 0.00 | 0.00 | 47 | 1226.5 |
| 20260509235322 | 82 | 355 | 1.0 | 15.0 | 0.00 | 0.00 | 0.00 | 41 | 1216.3 |
| 20260509234821 | 82 | 358 | 2.0 | 15.0 | 0.00 | 0.00 | 0.00 | 41 | 1213.3 |
| 20260509234320 | 82 | 358 | 1.0 | 15.0 | 0.00 | 0.00 | 0.00 | 42 | 1225.9 |
| 20260509233820 | 82 | 356 | 2.0 | 15.0 | 0.00 | 0.00 | 0.00 | 44 | 1217.3 |
| 20260509232804 | 82 | 340 | 2.0 | 15.0 | 0.00 | 0.00 | 0.00 | 43 | 1208.0 |
| 20260509232305 | 82 | 354 | 2.0 | 15.0 | 0.00 | 0.00 | 0.00 | 41 | 1217.4 |
| 20260509230729 | 83 | 350 | 4.0 | 15.0 | 0.00 | 0.00 | 0.00 | 40 | 1213.7 |
| 20260509230228 | 83 | 355 | 4.0 | 15.0 | 0.00 | 0.00 | 0.00 | 38 | 1215.1 |
| 20260509225727 | 83 | 352 | 4.0 | 15.0 | 0.00 | 0.00 | 0.00 | 38 | 1219.3 |
| 20260509225227 | 83 | 359 | 5.0 | 15.0 | 0.00 | 0.00 | 0.00 | 38 | 1223.9 |
| 20260509223139 | 83 | 356 | 4.0 | 15.0 | 0.00 | 0.00 | 0.00 | 38 | 1225.6 |
| 20260509222639 | 83 | 0 | 3.0 | 15.0 | 0.00 | 0.00 | 0.00 | 38 | 1226.6 |
| 20260509220036 | 83 | 346 | 5.0 | 15.0 | 0.00 | 0.00 | 0.00 | 40 | 1211.9 |
| 20260509215021 | 84 | 358 | 5.0 | 15.0 | 0.00 | 0.00 | 0.00 | 39 | 1217.3 |
| 20260509214005 | 85 | 356 | 7.0 | 15.0 | 0.00 | 0.00 | 0.00 | 35 | 1218.9 |
| 20260509213504 | 84 | 355 | 7.0 | 15.0 | 0.00 | 0.00 | 0.00 | 36 | 1214.9 |
| 20260509211416 | 87 | 356 | 6.0 | 15.0 | 0.00 | 0.00 | 0.00 | 35 | 1225.1 |
| 20260509203740 | 84 | 352 | 8.0 | 15.0 | 0.00 | 0.00 | 0.00 | 39 | 1203.1 |
| 20260509202724 | 86 | 350 | 7.0 | 15.0 | 0.00 | 0.00 | 0.00 | 33 | 1207.6 |
| 20260509201151 | 85 | 353 | 7.0 | 15.0 | 0.00 | 0.00 | 0.00 | 35 | 1198.1 |
| 20260509200135 | 86 | 357 | 7.0 | 14.0 | 0.00 | 0.00 | 0.00 | 34 | 1220.7 |
| 20260509195634 | 85 | 352 | 9.0 | 14.0 | 0.00 | 0.00 | 0.00 | 38 | 1210.0 |
| 20260509194617 | 85 | 345 | 9.0 | 14.0 | 0.00 | 0.00 | 0.00 | 39 | 1206.3 |
| 20260509194116 | 84 | 354 | 6.0 | 14.0 | 0.00 | 0.00 | 0.00 | 39 | 1214.2 |